Location: Waco, TX
(31.5480°N, 97.1670°W)
Time: 13:42:15
(UTC-05:00)

ISS - Pass Details

Date: 13 May 2021
Orbit: 417 x 422 km, 51.6° (Epoch: 15 May)

Event Time Altitude Azimuth Distance (km) Brightness Sun altitude
Rises 21:06:37 0° 196° (SSW) 2,340 -0.1 -10.3°
Reaches altitude 10° 21:09:00 10° 180° (S) 1,482 -1.3 -10.7°
Maximum altitude 21:11:37 21° 128° (SE) 980 -2.5 -11.2°
Enters shadow 21:13:26 14° 87° (E) 1,254 -1.8 -11.6°
Drops below altitude 10° 21:14:14 10° 76° (ENE) 1,490 - -11.7°
Sets 21:16:38 0° 60° (ENE) 2,358 - -12.1°
